Powrót do katalogu

OPS 1294

DMSP 5D-2 F7

AktywnyPogodaSSO
NORAD 14506·PAYLOAD·🇺🇸 United States

Wystrzelony Nov 18, 1983 z Vandenberg Space Force Base

Loading…

Następne Przeloty (najbliższe 24 godziny)

TLE

ŚwieżeSource: Space-Track

Epoka: Sep 14, 2026, 09:57 UTC

1 14506U 83113A   26257.41458590  .00000148  00000-0  74041-4 0  9993
2 14506  98.4395  39.9581 0010126 333.3412  45.1453 14.29864576228242

Śledź OPS 1294 w czasie rzeczywistym z AllMySat

Download on the App Store